Location: Orange Harbor Mobile Home Park
(26.6923°N, 81.7937°W)
Time: 11:43:18
(UTC+00:00)

Cosmos 2285 Rocket - Pass Details

Date: 19 September 2020
Orbit: 970 x 1000 km, 74.0° (Epoch: 29 October)

Event Time Altitude Azimuth Distance (km) Brightness Sun altitude
Rises 00:40:21 0° 173° (S) 3,645 6.8 -17.0°
Reaches altitude 10° 00:43:02 10° 166° (SSE) 2,702 6.1 -17.6°
Maximum altitude 00:48:44 38° 100° (E) 1,435 4.4 -18.8°
Drops below altitude 10° 00:54:29 10° 34° (NE) 2,722 6.1 -20.1°
Sets 00:57:11 0° 27° (NNE) 3,676 6.9 -20.7°
